Location: Mascot Post Office (historical)
(40.2645°N, 99.5462°W)
Time: 23:55:44
(UTC+00:00)

NOSS 3-4 (C) - Pass Details

Date: 26 October 2020
Orbit: 884 x 1328 km, 63.4° (Epoch: 28 November)

Event Time Altitude Azimuth Distance (km) Brightness Sun altitude
Rises 04:03:28 0° 321° (NW) 3,893 7.3 -48.9°
Reaches altitude 10° 04:06:05 10° 317° (NW) 2,995 6.5 -49.3°
Enters shadow 04:07:48 19° 312° (NW) 2,439 5.9 -49.6°
